Location: St Paul
(33.4390°N, 83.7350°W)
Time: 02:04:56
(UTC-04:00)

Centaur D AC-29 - Pass Details

Date: 06 October 2017
Orbit: 553 x 36286 km, 26.3° (Epoch: 20 October)

Event Time Altitude Azimuth Distance (km) Brightness Sun altitude
Rises 19:01:22 0° 249° (WSW) 18,021 10.5 1.4°
Reaches altitude 10° 19:28:17 10° 247° (WSW) 10,111 8.7 -4.1°
Maximum altitude 19:49:54 46° 181° (S) 1,889 3.5 -8.7°
Enters shadow 19:54:32 11° 107° (ESE) 2,354 3.4 -9.6°
